User: anonymous   Login
Location: Bletchingley
(51.2333°N, 0.1000°W)
Time: 22:24:08
(UTC+00:00)
Language:

Cosmos 1937 Rocket - Orbit

View from above orbital plane
View from above orbital plane
View from above satellite
View from above satellite

Ground track
Ground track

The orbit data is extracted from the following two-line orbital elements,

1 19039U 88029B   20327.94674459 -.00000056  00000-0 -96313-5 0  9991
2 19039  74.0450 148.5850 0023581   7.9342 352.2180 14.38490334711266
Epoch (UTC): 22 November 2020 22:43:18
Eccentricity: 0.0023581
inclination: 74.0450°
perigee height: 746 km
apogee height: 780 km
right ascension of ascending node: 148.5850°
argument of perigee: 7.9342°
revolutions per day: 14.38490334
mean anomaly at epoch: 352.2180°
orbit number at epoch: 71126

The dashed part of the orbit path shows where the satellite is in the earth's shadow,  

DLR